• In Netherlands
  • List of Countries
  • For 7 days
  • Water Temperature
  • Satellite Maps
  • Weather Map
  • Weather Widgets
  • user-avatar
    Login

    Hourly Weather Tibissa

    Today, 29 March, Wednesday

    Time Temperature Precipitation Wind Pressure Humidity
    00:00 +6°C° 0 mm 4 mps 688 mmHg 88%
    01:00 +5°C° 0 mm 4 mps 688 mmHg 88%
    02:00 +5°C° 0 mm 4 mps 688 mmHg 87%
    03:00 +5°C° 0 mm 4 mps 688 mmHg 85%
    04:00 +5°C° 0 mm 5 mps 688 mmHg 84%
    05:00 +5°C° 0 mm 5 mps 688 mmHg 82%
    06:00 +5°C° 0 mm 5 mps 689 mmHg 80%
    07:00 +5°C° 0 mm 5 mps 689 mmHg 77%
    08:00 +5°C° 0 mm 6 mps 689 mmHg 72%
    09:00 +7°C° 0 mm 6 mps 690 mmHg 66%
    10:00 +8°C° 0 mm 6 mps 690 mmHg 60%
    11:00 +9°C° 0 mm 6 mps 690 mmHg 57%
    12:00 +10°C° 0 mm 6 mps 690 mmHg 53%
    13:00 +12°C° 0 mm 5 mps 690 mmHg 49%
    14:00 +12°C° 0 mm 5 mps 690 mmHg 49%
    15:00 +12°C° 0 mm 5 mps 689 mmHg 49%
    16:00 +12°C° 0 mm 5 mps 689 mmHg 48%
    17:00 +11°C° 0 mm 4 mps 689 mmHg 55%
    18:00 +10°C° 0 mm 4 mps 689 mmHg 61%
    19:00 +9°C° 0 mm 3 mps 689 mmHg 67%
    20:00 +8°C° 0 mm 3 mps 689 mmHg 73%
    21:00 +7°C° 0 mm 2 mps 689 mmHg 80%
    22:00 +6°C° 0 mm 2 mps 690 mmHg 86%
    23:00 +5°C° 0 mm 2 mps 690 mmHg 87%

    Tomorrow, 30 March, Thursday

    Time Temperature Precipitation Wind Pressure Humidity
    00:00 +5°C° 0 mm 2 mps 690 mmHg 88%
    01:00 +4°C° 0 mm 2 mps 690 mmHg 89%
    02:00 +4°C° 0 mm 2 mps 689 mmHg 88%
    03:00 +4°C° 0 mm 2 mps 689 mmHg 86%
    04:00 +3°C° 0 mm 2 mps 689 mmHg 85%
    05:00 +3°C° 0 mm 2 mps 689 mmHg 82%
    06:00 +4°C° 0 mm 2 mps 689 mmHg 79%
    07:00 +4°C° 0 mm 2 mps 689 mmHg 77%
    08:00 +5°C° 0 mm 3 mps 690 mmHg 66%
    09:00 +9°C° 0 mm 3 mps 691 mmHg 54%
    10:00 +12°C° 0 mm 3 mps 692 mmHg 43%
    11:00 +13°C° 0 mm 3 mps 691 mmHg 37%
    12:00 +15°C° 0 mm 2 mps 691 mmHg 32%
    13:00 +17°C° 0 mm 2 mps 691 mmHg 26%
    14:00 +17°C° 0 mm 2 mps 691 mmHg 25%
    15:00 +18°C° 0 mm 2 mps 691 mmHg 24%
    16:00 +18°C° 0 mm 2 mps 691 mmHg 23%
    17:00 +16°C° 0 mm 2 mps 690 mmHg 29%
    18:00 +14°C° 0 mm 2 mps 690 mmHg 35%
    19:00 +12°C° 0 mm 2 mps 690 mmHg 41%
    20:00 +10°C° 0 mm 2 mps 690 mmHg 44%
    21:00 +10°C° 0 mm 2 mps 690 mmHg 48%
    22:00 +10°C° 0 mm 1 mps 690 mmHg 52%
    23:00 +9°C° 0 mm 1 mps 690 mmHg 54%

    Day after tomorrow, 31 March, Friday

    Time Temperature Precipitation Wind Pressure Humidity
    00:00 +8°C° 0 mm 2 mps 690 mmHg 56%
    01:00 +7°C° 0 mm 2 mps 690 mmHg 57%
    02:00 +7°C° 0 mm 2 mps 689 mmHg 59%
    03:00 +7°C° 0 mm 2 mps 689 mmHg 61%
    04:00 +7°C° 0 mm 2 mps 689 mmHg 62%
    05:00 +7°C° 0 mm 2 mps 689 mmHg 61%
    06:00 +7°C° 0 mm 2 mps 689 mmHg 60%
    07:00 +7°C° 0 mm 2 mps 689 mmHg 59%
    08:00 +10°C° 0 mm 3 mps 689 mmHg 50%
    09:00 +13°C° 0 mm 4 mps 690 mmHg 41%
    10:00 +16°C° 0 mm 5 mps 691 mmHg 32%
    11:00 +17°C° 0 mm 5 mps 690 mmHg 28%
    12:00 +20°C° 0 mm 5 mps 690 mmHg 25%
    13:00 +21°C° 0 mm 5 mps 690 mmHg 22%
    14:00 +21°C° 0 mm 5 mps 689 mmHg 22%
    15:00 +21°C° 0 mm 5 mps 689 mmHg 21%
    16:00 +22°C° 0 mm 5 mps 688 mmHg 21%
    17:00 +20°C° 0 mm 5 mps 688 mmHg 26%
    18:00 +18°C° 0 mm 4 mps 687 mmHg 31%
    19:00 +15°C° 0 mm 4 mps 687 mmHg 36%
    20:00 +14°C° 0 mm 4 mps 687 mmHg 38%
    21:00 +13°C° 0 mm 3 mps 687 mmHg 41%
    22:00 +12°C° 0 mm 3 mps 687 mmHg 44%
    23:00 +12°C° 0 mm 3 mps 687 mmHg 44%

    1 April, Saturday

    Time Temperature Precipitation Wind Pressure Humidity
    00:00 +11°C° 0 mm 3 mps 687 mmHg 44%
    01:00 +11°C° 0 mm 3 mps 686 mmHg 45%
    02:00 +11°C° 0 mm 3 mps 686 mmHg 44%
    03:00 +10°C° 0 mm 3 mps 685 mmHg 44%
    04:00 +10°C° 0 mm 3 mps 685 mmHg 44%
    05:00 +10°C° 0 mm 3 mps 685 mmHg 44%
    06:00 +10°C° 0 mm 3 mps 685 mmHg 45%
    07:00 +10°C° 0 mm 3 mps 685 mmHg 45%
    08:00 +13°C° 0 mm 4 mps 685 mmHg 38%
    09:00 +17°C° 0 mm 4 mps 686 mmHg 32%
    10:00 +20°C° 0 mm 5 mps 687 mmHg 26%
    11:00 +21°C° 0 mm 6 mps 686 mmHg 24%
    12:00 +22°C° 0 mm 7 mps 686 mmHg 22%
    13:00 +23°C° 0 mm 8 mps 685 mmHg 20%
    14:00 +22°C° 0 mm 8 mps 685 mmHg 21%
    15:00 +21°C° 0 mm 9 mps 684 mmHg 22%
    16:00 +21°C° 0 mm 9 mps 683 mmHg 23%
    17:00 +17°C° 0.6 mm 8 mps 683 mmHg 38%
    18:00 +15°C° 0.6 mm 7 mps 683 mmHg 53%
    19:00 +11°C° 0.6 mm 6 mps 682 mmHg 68%
    20:00 +10°C° 0.7 mm 6 mps 683 mmHg 73%
    21:00 +9°C° 0.7 mm 5 mps 683 mmHg 78%
    22:00 +8°C° 0.7 mm 4 mps 684 mmHg 82%
    23:00 +7°C° 0 mm 5 mps 684 mmHg 81%

    2 April, Sunday

    Time Temperature Precipitation Wind Pressure Humidity
    00:00 +7°C° 0 mm 5 mps 683 mmHg 79%
    01:00 +6°C° 0 mm 5 mps 683 mmHg 77%
    02:00 +5°C° 0 mm 6 mps 683 mmHg 78%
    03:00 +4°C° 0 mm 7 mps 682 mmHg 79%
    04:00 +4°C° 0 mm 8 mps 682 mmHg 79%
    05:00 +4°C° 0 mm 8 mps 682 mmHg 79%
    06:00 +4°C° 0 mm 8 mps 683 mmHg 79%
    07:00 +5°C° 0 mm 8 mps 683 mmHg 79%
    08:00 +6°C° 0 mm 8 mps 683 mmHg 74%
    09:00 +7°C° 0 mm 9 mps 684 mmHg 68%
    10:00 +8°C° 0 mm 9 mps 684 mmHg 63%
    11:00 +10°C° 0 mm 9 mps 684 mmHg 56%
    12:00 +11°C° 0 mm 9 mps 684 mmHg 49%
    13:00 +13°C° 0 mm 9 mps 684 mmHg 43%
    14:00 +13°C° 0 mm 9 mps 684 mmHg 42%
    15:00 +13°C° 0 mm 9 mps 684 mmHg 41%
    16:00 +13°C° 0 mm 9 mps 683 mmHg 40%
    17:00 +12°C° 0 mm 8 mps 683 mmHg 45%
    18:00 +10°C° 0 mm 7 mps 683 mmHg 50%
    19:00 +9°C° 0 mm 6 mps 683 mmHg 55%
    20:00 +8°C° 0 mm 6 mps 683 mmHg 60%
    21:00 +7°C° 0 mm 6 mps 684 mmHg 65%
    22:00 +5°C° 0 mm 6 mps 684 mmHg 70%
    23:00 +4°C° 0 mm 6 mps 684 mmHg 73%

    3 April, Monday

    Time Temperature Precipitation Wind Pressure Humidity
    00:00 +4°C° 0 mm 7 mps 683 mmHg 76%
    01:00 +3°C° 0 mm 7 mps 683 mmHg 79%
    02:00 +3°C° 0 mm 7 mps 683 mmHg 80%
    03:00 +3°C° 0 mm 7 mps 683 mmHg 81%
    04:00 +2°C° 0 mm 8 mps 683 mmHg 82%
    05:00 +4°C° 0.1 mm 7 mps 683 mmHg 82%
    06:00 +4°C° 0.1 mm 7 mps 683 mmHg 82%
    07:00 +5°C° 0.1 mm 7 mps 684 mmHg 83%
    08:00 +6°C° 0.1 mm 7 mps 684 mmHg 79%
    09:00 +8°C° 0.1 mm 7 mps 685 mmHg 76%
    10:00 +9°C° 0.1 mm 8 mps 685 mmHg 72%
    11:00 +10°C° 0.1 mm 7 mps 685 mmHg 67%
    12:00 +12°C° 0.1 mm 7 mps 685 mmHg 63%
    13:00 +14°C° 0.1 mm 7 mps 686 mmHg 58%
    14:00 +14°C° 0.1 mm 7 mps 685 mmHg 57%
    15:00 +14°C° 0.1 mm 7 mps 685 mmHg 56%
    16:00 +13°C° 0.1 mm 8 mps 685 mmHg 54%
    17:00 +12°C° 0 mm 7 mps 685 mmHg 62%
    18:00 +11°C° 0 mm 7 mps 685 mmHg 70%
    19:00 +9°C° 0 mm 6 mps 686 mmHg 77%
    20:00 +8°C° 0 mm 6 mps 686 mmHg 80%
    21:00 +8°C° 0 mm 6 mps 686 mmHg 84%
    22:00 +7°C° 0 mm 6 mps 686 mmHg 87%
    23:00 +6°C° 0 mm 5 mps 686 mmHg 87%
    Show more